Погода в Гвардейском

Россия / Республика Крым     45˚06′56″N   34˚00′50″E
темп.,
°C
ветер,
м/с
пор.,
м/с
влажн.,
%
обл.,
%
осадки,
мм/ч
давл.,
гПа
погр.,
м
16 января, сб
сб1600:00−2˚ссз127923 0.0 1015193
03:00−2˚ююз239141 0.3 1016247
06:00−4˚ссв129659 0.3 101649
09:00−4˚в129270 0.3 101647
12:00в016633 0.0 1017425
15:00+1˚ссв336765 0.0 1014423
18:00−2˚всв4783100 0.0 1013185
21:00−1˚в3583100 0.1 1012148
17 января, вс
вс1700:00−1˚всв6982100 0.0 1011391
03:00−2˚св81286100 0.1 1009627
06:00−3˚св81292100 0.4 1009759
09:00−4˚ссв71193100 1.1 1010572
12:00−3˚ссв7978100 0.1 1010690
15:00−3˚ссв6878100 0.2 1010730
18:00−5˚ссв5782100 0.1 1011568
21:00−6˚ссв358396 0.1 1013374
18 января, пн
пн1800:00−7˚с358899 0.0 1014375
03:00−8˚ссз3491100 0.2 1016315
06:00−9˚сз2288100 0.1 1016359
09:00−9˚юз1284100 0.1 1018183
12:00−6˚ююв216041 0.0 1018357
15:00−4˚зсз115467 0.0 1018668
18:00−6˚ссв4578100 0.0 1019295
21:00−7˚с3490100 0.4 1019357
19 января, вт
вт1900:00−8˚вюв128891 0.1 102023
03:00−7˚ю128691 0.1 102062
06:00−8˚с1189100 0.0 102077
09:00−8˚сз119296 0.1 1021117
12:00−6˚сз347487 0.0 1022631
15:00−5˚зсз357192 0.0 1022797
18:00−8˚сз228071 0.0 102361
21:00−8˚ююз018441 0.0 102524
20 января, ср
ср2000:00−8˚юв22830 0.0 102624
03:00−8˚ююв22800 0.0 102622
06:00−8˚ююв22790 0.0 102622
09:00−7˚ююв23790 0.0 102731
12:00−2˚ююз23620 0.0 1028502
15:00−1˚юз23650 0.0 1027581
18:00−3˚ююв23760 0.0 102723
21:00−3˚ююв34793 0.0 102873